Tracking 30995 objects as of 7-Jul-2025
HD Live streaming from Space Station
objects crossing your sky now

STARLINK-5879

Track STARLINK-5879 now!
10-day predictions
STARLINK-5879 is classified as:


NORAD ID: 57153
Int'l Code: 2023-090BE
Perigee: 565.4 km
Apogee: 567.0 km
Inclination: 43.0 °
Period: 95.8 minutes
Semi major axis: 6937 km
RCS: Unknown
Launch date: June 23, 2023
Source: United States (US)
Launch site: AIR FORCE EASTERN TEST RANGE (AFETR)
Your satellite tracking list
Your tracking list is empty




NASA's NSSDC Master Catalog

Two Line Element Set (TLE):
1 57153U 23090BE  25187.87971585 -.00000534  00000-0 -24495-4 0  9990
2 57153  43.0037 144.5720 0001140 277.5039  82.5674 15.02529833112590
Source of the keplerian elements: AFSPC